Вернуться в каталог

FENGYUN 1C DEB

LostSSO
NORAD 38831·DEBRIS·🇨🇳 China

Запущен May 10, 1999 с Taiyuan Satellite Launch Center

Loading…

Ближайшие Пролёты (ближайшие 24 часа)

TLE

УстаревшееSource: Space-Track

Эпоха: Jul 26, 2018, 14:16 UTC

1 38831U 99025EVX 18207.59496050 +.00000365 +00000-0 +25963-3 0  9996
2 38831 099.2309 214.9187 0057028 039.0780 321.4957 14.03275232503501

Отслеживайте FENGYUN 1C DEB в реальном времени с AllMySat

Download on the App Store